Location: Marshall
(39.8477°N, 87.1868°W)
Time: 03:11:27
(UTC+00:00)

Envisat - Pass Details

Date: 10 May 2026
Orbit: 761 x 763 km, 98.4° (Epoch: 9 June)

Event Time Altitude Azimuth Distance (km) Brightness Sun altitude
Rises 08:45:52 0° 8° (N) 3,232 7.1 -18.7°
Reaches altitude 10° 08:48:12 10° 5° (N) 2,302 6.2 -18.4°
Maximum altitude 08:53:11 60° 287° (WNW) 873 3.1 -17.7°
Enters shadow 08:55:31 30° 220° (SW) 1,329 3.7 -17.4°
